Location: Silverdale
(47.6506°N, 122.6941°W)
Time: 03:40:38
(UTC+00:00)

Altair - Pass Details

Date: 09 October 2022
Orbit: 1501 x 1682 km, 47.2° (Epoch: 05 December)

Event Time Altitude Azimuth Distance (km) Brightness Sun altitude
Rises 13:57:57 0° 265° (W) 4,777 - -4.7°
Exits shadow 13:59:20 - 265° (W) 4,336 9.2 -4.5°
Reaches altitude 10° 14:00:59 10° 265° (W) 3,816 8.9 -4.2°
Maximum altitude 14:10:49 88° 179° (S) 1,651 7.8 -2.6°
Drops below altitude 10° 14:20:58 10° 90° (E) 3,935 11.7 -0.9°
Sets 14:24:09 0° 90° (E) 4,931 12.7 -0.4°
